Location: Équennes
(49.7375°N, 1.9622°E)
Time: 17:40:31
(UTC+00:00)

Cosmos 2278 - Pass Details

Date: 02 October 2023
Orbit: 838 x 853 km, 71.1° (Epoch: 08 December)

Event Time Altitude Azimuth Distance (km) Brightness Sun altitude
Rises 18:46:17 0° 275° (W) 3,407 8.9 -13.2°
Reaches altitude 10° 18:50:03 10° 300° (WNW) 2,478 7.3 -13.8°
Maximum altitude 18:52:59 14° 331° (NNW) 2,200 6.4 -14.3°
Drops below altitude 10° 18:55:56 10° 3° (N) 2,488 6.3 -14.8°
Sets 18:59:44 0° 28° (NNE) 3,429 6.7 -15.4°
